CW9464 Weather Reports


time (UTC)temp
C
wind
direction
speed
KPH
gust
KPH
rain 1hr
cm
rain 24hr
cm
rain mn
cm
humidity
%
barometer
mb
20200229072814 11 342 3.2 12.9 0.00 0.00 0.00 55 1020.6
20200229072312 11 5 3.2 12.9 0.00 0.00 0.00 55 1020.6
20200229071809 10 0 0.0 12.9 0.00 0.00 0.00 55 1020.7
20200229071310 10 340 0.0 0.0 0.00 0.00 0.00 55 1020.7
20200229070810 10 346 0.0 1.6 0.00 0.00 0.00 55 1020.8
20200229070311 11 348 0.0 1.6 0.00 0.00 0.00 55 1020.8
20200229065805 11 327 0.0 0.0 0.00 0.00 0.00 54 1020.8
20200229065304 11 347 0.0 0.0 0.00 0.00 0.00 54 1020.8
20200229064806 11 0 0.0 0.0 0.00 0.00 0.00 54 1021.0
20200229064304 11 355 0.0 0.0 0.00 0.00 0.00 55 1021.1
20200229063802 11 342 0.0 0.0 0.00 0.00 0.00 54 1021.1
20200229063302 11 338 0.0 0.0 0.00 0.00 0.00 53 1021.1
20200229062800 11 331 0.0 8.0 0.00 0.00 0.00 52 1021.0
20200229062258 11 348 0.0 8.0 0.00 0.00 0.00 52 1021.0
20200229061759 11 344 0.0 8.0 0.00 0.00 0.00 51 1021.0
20200229061258 12 345 0.0 9.7 0.00 0.00 0.00 51 1021.0
20200229060756 11 0 1.6 11.3 0.00 0.00 0.00 51 1021.0
20200229060256 11 349 1.6 11.3 0.00 0.00 0.00 52 1021.0
20200229055751 11 265 1.6 6.4 0.00 0.00 0.00 53 1020.9
20200229055248 11 264 0.0 4.8 0.00 0.00 0.00 54 1020.9
20200229054751 11 264 0.0 3.2 0.00 0.00 0.00 55 1020.8
20200229054250 11 264 0.0 3.2 0.00 0.00 0.00 54 1020.7
20200229053748 11 264 0.0 0.0 0.00 0.00 0.00 54 1020.6
20200229053248 11 264 0.0 0.0 0.00 0.00 0.00 55 1020.7
20200229052746 11 264 0.0 0.0 0.00 0.00 0.00 56 1020.7
20200229052244 11 264 0.0 0.0 0.00 0.00 0.00 56 1020.7
20200229051744 12 264 0.0 4.8 0.00 0.00 0.00 55 1020.7
20200229051244 12 264 0.0 4.8 0.00 0.00 0.00 56 1020.8
20200229050742 12 264 0.0 0.0 0.00 0.00 0.00 56 1020.7
20200229050246 12 264 0.0 0.0 0.00 0.00 0.00 56 1020.7
20200229045736 12 264 0.0 0.0 0.00 0.00 0.00 54 1020.8
20200229045235 12 264 0.0 0.0 0.00 0.00 0.00 54 1020.8
20200229044733 12 264 0.0 1.6 0.00 0.00 0.00 54 1020.7
20200229044233 13 264 0.0 1.6 0.00 0.00 0.00 54 1020.7
20200229043731 13 264 0.0 3.2 0.00 0.00 0.00 53 1020.7
20200229043235 13 264 0.0 4.8 0.00 0.00 0.00 54 1020.8
20200229042730 13 264 0.0 4.8 0.00 0.00 0.00 53 1020.8
20200229042233 13 264 0.0 0.0 0.00 0.00 0.00 51 1020.7
20200229041724 13 264 0.0 0.0 0.00 0.00 0.00 51 1020.7
20200229041222 14 264 0.0 0.0 0.00 0.00 0.00 50 1020.6
20200229040722 14 264 0.0 4.8 0.00 0.00 0.00 50 1020.5
20200229040222 14 264 0.0 4.8 0.00 0.00 0.00 50 1020.5
20200229035716 15 264 0.0 3.2 0.00 0.00 0.00 50 1020.4
20200229035214 15 264 1.6 6.4 0.00 0.00 0.00 49 1020.4
20200229034712 15 264 1.6 6.4 0.00 0.00 0.00 48 1020.5
20200229034210 15 264 0.0 0.0 0.00 0.00 0.00 47 1020.3
20200229033710 15 264 0.0 0.0 0.00 0.00 0.00 46 1020.4
20200229033205 16 264 0.0 0.0 0.00 0.00 0.00 47 1020.3
20200229032706 16 264 0.0 0.0 0.00 0.00 0.00 47 1020.2
20200229032206 16 264 0.0 0.0 0.00 0.00 0.00 45 1020.2
20200229031704 16 264 0.0 0.0 0.00 0.00 0.00 48 1020.1
20200229031203 16 264 0.0 0.0 0.00 0.00 0.00 47 1020.0
20200229030702 16 264 0.0 0.0 0.00 0.00 0.00 42 1020.0
20200229030155 17 264 0.0 0.0 0.00 0.00 0.00 40 1020.0
20200229025656 17 264 0.0 0.0 0.00 0.00 0.00 40 1020.0
20200229025157 17 264 0.0 0.0 0.00 0.00 0.00 38 1019.9
20200229024655 17 264 0.0 0.0 0.00 0.00 0.00 40 1019.9
20200229024154 18 264 0.0 0.0 0.00 0.00 0.00 40 1019.8
20200229023657 18 264 0.0 0.0 0.00 0.00 0.00 39 1019.9
20200229023150 18 264 0.0 0.0 0.00 0.00 0.00 36 1019.8
20200229022648 19 264 0.0 0.0 0.00 0.00 0.00 36 1019.6
20200229022149 19 264 0.0 3.2 0.00 0.00 0.00 35 1019.5
20200229021930 20 264 0.0 0.0 0.00 0.00 0.00 32 1019.7
20200229021924 20 264 0.0 3.2 0.00 0.00 0.00 32 1019.6
20200229021919 19 264 0.0 3.2 0.00 0.00 0.00 33 1019.5
20200229020141 20 264 0.0 0.0 0.00 0.00 0.00 31 1019.6
20200229020057 21 264 0.0 0.0 0.00 0.00 0.00 28 1019.4
20200229020036 21 264 0.0 0.0 0.00 0.00 0.00 29 1019.6
20200229020029 22 264 0.0 0.0 0.00 0.00 0.00 27 1019.5
20200229020021 22 264 0.0 0.0 0.00 0.00 0.00 28 1019.4
20200229020015 20 264 0.0 0.0 0.00 0.00 0.00 31 1019.4
20200229020009 21 264 0.0 0.0 0.00 0.00 0.00 31 1019.5
20200229020003 21 264 0.0 0.0 0.00 0.00 0.00 31 1019.5
20200229012133 22 264 0.0 0.0 0.00 0.00 0.00 24 1019.5
20200229011631 23 264 0.0 0.0 0.00 0.00 0.00 25 1019.6
20200229011131 23 264 0.0 0.0 0.00 0.00 0.00 26 1019.6
20200229010630 23 264 1.6 9.7 0.00 0.00 0.00 24 1019.5
20200229010131 24 264 4.8 9.7 0.00 0.00 0.00 23 1019.5
20200229005635 24 264 4.8 9.7 0.00 0.00 0.00 23 1019.7
20200229005130 25 264 3.2 9.7 0.00 0.00 0.00 22 1019.7
20200229004625 25 264 1.6 9.7 0.00 0.00 0.00 22 1019.7
20200229004125 25 264 1.6 9.7 0.00 0.00 0.00 21 1019.7
20200229003624 26 264 0.0 4.8 0.00 0.00 0.00 21 1019.7
20200229003124 26 264 0.0 9.7 0.00 0.00 0.00 20 1019.7
20200229002625 26 264 1.6 9.7 0.00 0.00 0.00 19 1019.7
20200229002127 26 264 3.2 11.3 0.00 0.00 0.00 19 1019.7
20200229001620 26 264 4.8 11.3 0.00 0.00 0.00 18 1019.8
20200229001118 27 265 3.2 9.7 0.00 0.00 0.00 17 1019.9
20200229000618 27 264 3.2 11.3 0.00 0.00 0.00 16 1019.9
20200229000118 27 264 3.2 11.3 0.00 0.00 0.00 16 1019.8
20200228235616 27 263 3.2 12.9 0.00 0.00 0.00 16 1019.8
20200228235115 27 263 1.6 12.9 0.00 0.00 0.00 15 1019.6
20200228234614 27 261 3.2 12.9 0.00 0.00 0.00 13 1019.7
20200228234112 28 261 4.8 12.9 0.00 0.00 0.00 14 1019.5
20200228233610 28 263 3.2 16.1 0.00 0.00 0.00 14 1019.4
20200228233109 28 263 4.8 16.1 0.00 0.00 0.00 14 1019.5
20200228232609 28 266 6.4 16.1 0.00 0.00 0.00 15 1019.5
20200228232106 28 259 6.4 16.1 0.00 0.00 0.00 13 1019.5
20200228231611 28 263 6.4 11.3 0.00 0.00 0.00 14 1019.5
20200228231101 28 269 8.0 14.5 0.00 0.00 0.00 16 1019.5
20200228230602 28 260 6.4 14.5 0.00 0.00 0.00 12 1019.5
20200228230101 29 258 6.4 19.3 0.00 0.00 0.00 14 1019.7
20200228225558 28 224 8.0 19.3 0.00 0.00 0.00 14 1019.8
20200228225100 28 236 6.4 16.1 0.00 0.00 0.00 15 1019.9
20200228224600 28 266 8.0 16.1 0.00 0.00 0.00 14 1019.9
20200228224055 28 242 6.4 14.5 0.00 0.00 0.00 14 1019.9
20200228223556 28 241 3.2 12.9 0.00 0.00 0.00 13 1019.8
20200228223052 28 246 1.6 12.9 0.00 0.00 0.00 17 1019.9
20200228222552 28 252 1.6 6.4 0.00 0.00 0.00 13 1019.9
20200228222054 28 244 0.0 4.8 0.00 0.00 0.00 13 1019.9
20200228221555 28 236 1.6 11.3 0.00 0.00 0.00 13 1019.9
20200228221052 29 236 1.6 11.3 0.00 0.00 0.00 13 1020.1
20200228220546 28 229 1.6 11.3 0.00 0.00 0.00 15 1020.1
20200228220044 28 229 3.2 11.3 0.00 0.00 0.00 13 1020.1
20200228215541 28 239 4.8 11.3 0.00 0.00 0.00 16 1020.0
20200228215041 29 241 3.2 11.3 0.00 0.00 0.00 14 1019.9
20200228214542 29 292 1.6 8.0 0.00 0.00 0.00 14 1019.7
20200228214040 29 242 1.6 8.0 0.00 0.00 0.00 14 1019.6
20200228213539 29 236 1.6 8.0 0.00 0.00 0.00 13 1019.6
20200228213039 29 236 3.2 11.3 0.00 0.00 0.00 14 1019.7
20200228212540 29 236 1.6 11.3 0.00 0.00 0.00 14 1019.6
20200228212040 30 261 1.6 4.8 0.00 0.00 0.00 13 1019.6
20200228211538 29 254 1.6 8.0 0.00 0.00 0.00 14 1019.6
20200228211035 29 284 1.6 8.0 0.00 0.00 0.00 13 1019.6
20200228210534 29 285 3.2 8.0 0.00 0.00 0.00 14 1019.8
20200228210032 29 281 3.2 9.7 0.00 0.00 0.00 15 1019.8
20200228205533 29 311 1.6 9.7 0.00 0.00 0.00 14 1019.8
20200228205028 28 251 3.2 9.7 0.00 0.00 0.00 16 1019.9
20200228204523 28 248 3.2 9.7 0.00 0.00 0.00 16 1019.9
20200228204022 28 259 1.6 6.4 0.00 0.00 0.00 15 1019.9
20200228203523 28 74 1.6 4.8 0.00 0.00 0.00 17 1019.9
20200228203023 28 74 1.6 6.4 0.00 0.00 0.00 16 1020.0
20200228202523 28 80 1.6 8.0 0.00 0.00 0.00 14 1020.1
20200228202024 28 35 1.6 8.0 0.00 0.00 0.00 16 1020.1
20200228201523 28 30 0.0 3.2 0.00 0.00 0.00 15 1020.2
20200228201022 28 30 1.6 6.4 0.00 0.00 0.00 16 1020.3
20200228200523 28 31 0.0 6.4 0.00 0.00 0.00 15 1020.5
20200228200024 28 69 0.0 4.8 0.00 0.00 0.00 15 1020.5
20200228195524 28 76 0.0 4.8 0.00 0.00 0.00 17 1020.6
20200228195019 28 110 0.0 4.8 0.00 0.00 0.00 16 1020.8
20200228194518 27 217 0.0 4.8 0.00 0.00 0.00 18 1020.9
20200228194022 27 217 1.6 4.8 0.00 0.00 0.00 16 1021.0
20200228193520 27 217 0.0 4.8 0.00 0.00 0.00 18 1021.2
20200228193019 27 212 0.0 4.8 0.00 0.00 0.00 18 1021.2
20200228192520 27 209 0.0 4.8 0.00 0.00 0.00 17 1021.3
20200228192015 27 89 0.0 4.8 0.00 0.00 0.00 21 1021.4
20200228191515 26 89 0.0 4.8 0.00 0.00 0.00 16 1021.4
20200228191016 26 89 0.0 4.8 0.00 0.00 0.00 16 1021.5
20200228190515 26 89 0.0 4.8 0.00 0.00 0.00 18 1021.6
20200228190014 26 89 0.0 4.8 0.00 0.00 0.00 17 1021.7
20200228185516 26 89 0.0 4.8 0.00 0.00 0.00 16 1021.8
20200228185011 26 89 0.0 4.8 0.00 0.00 0.00 16 1021.8
20200228184512 26 94 0.0 0.0 0.00 0.00 0.00 18 1021.7
20200228184012 26 95 0.0 3.2 0.00 0.00 0.00 18 1021.9
20200228183512 26 96 1.6 4.8 0.00 0.00 0.00 18 1021.9
20200228183012 26 96 1.6 4.8 0.00 0.00 0.00 16 1021.9
20200228182512 26 86 1.6 4.8 0.00 0.00 0.00 17 1022.1
20200228182006 26 86 0.0 6.4 0.00 0.00 0.00 17 1022.2
20200228181508 25 86 1.6 11.3 0.00 0.00 0.00 18 1022.2
20200228181010 25 88 1.6 11.3 0.00 0.00 0.00 19 1022.3
20200228180507 25 58 1.6 6.4 0.00 0.00 0.00 19 1022.3
20200228180006 25 57 1.6 6.4 0.00 0.00 0.00 21 1022.3
20200228175508 25 58 1.6 6.4 0.00 0.00 0.00 21 1022.3
20200228175006 25 355 1.6 6.4 0.00 0.00 0.00 21 1022.3
20200228174506 24 37 1.6 8.0 0.00 0.00 0.00 20 1022.4
20200228174007 24 37 1.6 8.0 0.00 0.00 0.00 21 1022.4
20200228173509 23 0 1.6 11.3 0.00 0.00 0.00 23 1022.6
20200228173011 23 18 0.0 11.3 0.00 0.00 0.00 23 1022.6
20200228172505 23 0 0.0 6.4 0.00 0.00 0.00 22 1022.7
20200228172003 22 0 1.6 6.4 0.00 0.00 0.00 24 1022.7
20200228171504 22 348 1.6 6.4 0.00 0.00 0.00 25 1022.7
20200228171004 21 350 0.0 6.4 0.00 0.00 0.00 25 1022.7
20200228170504 21 350 0.0 3.2 0.00 0.00 0.00 24 1022.7
20200228170003 21 350 0.0 0.0 0.00 0.00 0.00 25 1022.7
20200228165459 20 350 0.0 0.0 0.00 0.00 0.00 27 1022.7
20200228165000 20 350 0.0 0.0 0.00 0.00 0.00 28 1022.6
20200228164500 20 0 0.0 0.0 0.00 0.00 0.00 30 1022.6
20200228163958 19 13 0.0 0.0 0.00 0.00 0.00 32 1022.8
20200228163459 19 342 0.0 0.0 0.00 0.00 0.00 32 1022.9
20200228163001 18 342 0.0 17.7 0.00 0.00 0.00 31 1022.9
20200228162455 18 342 1.6 17.7 0.00 0.00 0.00 33 1022.9
20200228161955 18 328 4.8 17.7 0.00 0.00 0.00 35 1022.9
20200228161454 17 355 3.2 17.7 0.00 0.00 0.00 35 1022.9
20200228160956 17 329 1.6 16.1 0.00 0.00 0.00 36 1022.7
20200228160454 17 5 1.6 6.4 0.00 0.00 0.00 36 1022.6
20200228155956 16 342 1.6 14.5 0.00 0.00 0.00 37 1022.5
20200228155451 16 355 0.0 14.5 0.00 0.00 0.00 38 1022.3
20200228154951 15 348 0.0 9.7 0.00 0.00 0.00 40 1022.4
20200228154451 15 350 0.0 12.9 0.00 0.00 0.00 41 1022.5
20200228153951 15 333 0.0 12.9 0.00 0.00 0.00 41 1022.4
20200228153451 14 331 0.0 9.7 0.00 0.00 0.00 42 1022.4
20200228152952 14 333 1.6 12.9 0.00 0.00 0.00 43 1022.2
20200228152446 13 355 3.2 12.9 0.00 0.00 0.00 43 1022.1
20200228151948 13 325 1.6 14.5 0.00 0.00 0.00 43 1021.9
20200228151447 13 343 1.6 14.5 0.00 0.00 0.00 45 1021.8
20200228150946 13 336 0.0 12.9 0.00 0.00 0.00 45 1021.8
20200228150447 12 348 0.0 12.9 0.00 0.00 0.00 46 1021.8
20200228145948 12 349 1.6 12.9 0.00 0.00 0.00 46 1021.8
20200228145442 12 348 1.6 12.9 0.00 0.00 0.00 46 1021.8
20200228144944 12 355 0.0 12.9 0.00 0.00 0.00 46 1021.7
20200228144447 12 0 0.0 9.7 0.00 0.00 0.00 46 1021.6
20200228143944 12 342 0.0 9.7 0.00 0.00 0.00 47 1021.6
20200228143443 12 323 0.0 9.7 0.00 0.00 0.00 47 1021.7
20200228142944 11 325 0.0 9.7 0.00 0.00 0.00 48 1021.6
20200228142444 11 335 0.0 8.0 0.00 0.00 0.00 48 1021.4
20200228141943 11 319 0.0 16.1 0.00 0.00 0.00 48 1021.4
20200228141443 11 339 0.0 16.1 0.00 0.00 0.00 49 1021.3
20200228140944 11 355 0.0 0.0 0.00 0.00 0.00 49 1021.4
20200228140442 11 336 0.0 0.0 0.00 0.00 0.00 48 1021.4
20200228135942 11 336 0.0 9.7 0.00 0.00 0.00 47 1021.3
20200228135442 11 339 0.0 9.7 0.00 0.00 0.00 47 1021.1
20200228134938 11 344 0.0 14.5 0.00 0.00 0.00 46 1021.0
20200228134437 11 355 1.6 14.5 0.00 0.00 0.00 46 1020.9
20200228133937 11 328 1.6 11.3 0.00 0.00 0.00 46 1020.9
20200228133437 11 316 0.0 14.5 0.00 0.00 0.00 45 1020.8
20200228132936 11 340 1.6 14.5 0.00 0.00 0.00 45 1020.9
20200228132437 12 333 3.2 12.9 0.00 0.00 0.00 45 1021.0
20200228131934 12 337 3.2 14.5 0.00 0.00 0.00 44 1021.0
20200228131437 12 294 1.6 14.5 0.00 0.00 0.00 44 1021.0
20200228130934 12 329 1.6 14.5 0.00 0.00 0.00 44 1020.8
20200228130427 12 329 0.0 12.9 0.00 0.00 0.00 45 1020.7
20200228125928 12 315 0.0 8.0 0.00 0.00 0.00 45 1020.7
20200228125425 12 327 1.6 9.7 0.00 0.00 0.00 45 1020.7
20200228124925 11 331 1.6 9.7 0.00 0.00 0.00 45 1020.7
20200228124424 11 347 1.6 9.7 0.00 0.00 0.00 45 1020.7
20200228123928 11 329 1.6 12.9 0.00 0.00 0.00 45 1020.7
20200228123419 11 337 1.6 14.5 0.00 0.00 0.00 46 1020.7
20200228122918 11 335 1.6 14.5 0.00 0.00 0.00 46 1020.6
20200228122414 11 334 1.6 12.9 0.00 0.00 0.00 46 1020.7
20200228121915 11 343 0.0 8.0 0.00 0.00 0.00 46 1020.8
20200228121416 11 355 0.0 8.0 0.00 0.00 0.00 46 1020.7
20200228120914 11 351 0.0 8.0 0.00 0.00 0.00 46 1020.6
20200228120411 11 348 0.0 0.0 0.00 0.00 0.00 46 1020.6
20200228115911 11 348 0.0 6.4 0.00 0.00 0.00 46 1020.6
20200228115410 12 355 0.0 6.4 0.00 0.00 0.00 46 1020.5
20200228114906 12 339 0.0 1.6 0.00 0.00 0.00 45 1020.5
20200228114407 12 339 0.0 1.6 0.00 0.00 0.00 44 1020.5
20200228113908 12 5 1.6 12.9 0.00 0.00 0.00 45 1020.3
20200228113406 12 355 1.6 12.9 0.00 0.00 0.00 45 1020.2
20200228112908 12 5 1.6 14.5 0.00 0.00 0.00 45 1020.3
20200228112403 12 344 1.6 14.5 0.00 0.00 0.00 45 1020.3
20200228111902 12 345 1.6 12.9 0.00 0.00 0.00 44 1020.2
20200228111402 12 348 1.6 9.7 0.00 0.00 0.00 44 1020.2
20200228110903 12 343 0.0 17.7 0.00 0.00 0.00 44 1020.1
20200228110402 12 344 1.6 17.7 0.00 0.00 0.00 44 1020.1
20200228105903 12 329 1.6 17.7 0.00 0.00 0.00 44 1019.9
20200228105404 12 335 1.6 17.7 0.00 0.00 0.00 44 1019.8
20200228104900 12 341 1.6 9.7 0.00 0.00 0.00 45 1019.8
20200228104359 12 351 1.6 14.5 0.00 0.00 0.00 44 1019.8
20200228103859 12 345 3.2 14.5 0.00 0.00 0.00 44 1019.7
20200228103358 12 336 3.2 16.1 0.00 0.00 0.00 44 1019.7
20200228102856 12 335 1.6 16.1 0.00 0.00 0.00 44 1019.7
20200228102355 12 322 0.0 12.9 0.00 0.00 0.00 44 1019.7
20200228101850 12 332 0.0 12.9 0.00 0.00 0.00 44 1019.6
20200228101348 11 332 3.2 12.9 0.00 0.00 0.00 45 1019.6
20200228100850 11 355 1.6 12.9 0.00 0.00 0.00 45 1019.6
20200228100349 11 332 1.6 12.9 0.00 0.00 0.00 46 1019.7
20200228095849 11 333 1.6 12.9 0.00 0.00 0.00 46 1019.7
20200228095352 11 349 0.0 12.9 0.00 0.00 0.00 46 1019.7
20200228094843 11 329 0.0 12.9 0.00 0.00 0.00 46 1019.7
20200228094341 11 347 1.6 12.9 0.00 0.00 0.00 46 1019.7
20200228093841 11 355 1.6 12.9 0.00 0.00 0.00 46 1019.8
20200228093341 11 341 0.0 8.0 0.00 0.00 0.00 45 1019.8
20200228092842 11 0 1.6 9.7 0.00 0.00 0.00 45 1019.8
20200228092340 12 340 1.6 9.7 0.00 0.00 0.00 44 1019.8
20200228091833 12 342 1.6 8.0 0.00 0.00 0.00 44 1019.8
20200228091334 12 350 0.0 8.0 0.00 0.00 0.00 44 1020.0
20200228090832 12 0 0.0 0.0 0.00 0.00 0.00 44 1020.0
20200228090333 12 346 0.0 8.0 0.00 0.00 0.00 44 1020.0
20200228085829 11 320 0.0 8.0 0.00 0.00 0.00 45 1020.0
20200228085328 11 319 0.0 3.2 0.00 0.00 0.00 45 1020.0
20200228084828 11 319 0.0 8.0 0.00 0.00 0.00 45 1020.2
20200228084323 11 319 0.0 8.0 0.00 0.00 0.00 45 1020.2
20200228083823 11 319 1.6 8.0 0.00 0.00 0.00 45 1020.2
20200228083323 12 317 0.0 8.0 0.00 0.00 0.00 45 1020.2
20200228082820 12 327 0.0 8.0 0.00 0.00 0.00 44 1020.2
20200228082321 12 323 0.0 8.0 0.00 0.00 0.00 44 1020.2
20200228081821 12 348 0.0 9.7 0.00 0.00 0.00 43 1020.2
20200228081315 12 329 0.0 9.7 0.00 0.00 0.00 44 1020.3
20200228080814 12 344 0.0 9.7 0.00 0.00 0.00 43 1020.5
20200228080315 12 337 1.6 9.7 0.00 0.00 0.00 43 1020.6
20200228075815 12 342 1.6 9.7 0.00 0.00 0.00 43 1020.5
20200228075316 12 336 0.0 6.4 0.00 0.00 0.00 43 1020.5
20200228074817 12 333 0.0 9.7 0.00 0.00 0.00 42 1020.5
20200228074311 12 345 0.0 14.5 0.00 0.00 0.00 43 1020.5
20200228073810 12 0 0.0 14.5 0.00 0.00 0.00 43 1020.4
20200228073312 12 355 0.0 1.6 0.00 0.00 0.00 44 1020.4